User: anonymous   Login
Location: LDNL
(36.4545°S, 141.6685°E)
Time: 04:07:58
(UTC+10:00)
Language:

AAUSAT CUBESAT 2 - Orbit

View from above orbital plane
View from above orbital plane
View from above satellite
View from above satellite

Ground track
Ground track

The orbit data is extracted from the following two-line orbital elements,

1 32788U 08021F   22136.89561776  .00006024  00000-0  52519-3 0  9999
2 32788  97.5316 123.3368 0010058 221.2597 138.7866 14.97187025763716
Epoch (UTC): 16 May 2022 21:29:41
Eccentricity: 0.0010058
inclination: 97.5316°
perigee height: 568 km
apogee height: 582 km
right ascension of ascending node: 123.3368°
argument of perigee: 221.2597°
revolutions per day: 14.97187025
mean anomaly at epoch: 138.7866°
orbit number at epoch: 76371

The dashed part of the orbit path shows where the satellite is in the earth's shadow,  

DLR